Rifle, CO

5:47 PM MST on December 10, 2017 (GMT -0700)
Garfield County Regional

Weather History for KRIL - October, 2013

Change the Weather History Date:

Wednesday, October 23, 2013

  Actual Average Record
Temperature  
Mean Temperature 48 °F 46 °F  
Max Temperature 66 °F 61 °F 79 °F (2003)
Min Temperature 29 °F 31 °F 15 °F (1935)
Degree Days  
Heating Degree Days 17 19  
Month to date heating degree days 412 332  
Since 1 July heating degree days 523 478  
Cooling Degree Days 0 0  
Month to date cooling degree days 0 0  
Year to date cooling degree days 798 541  
Moisture  
Dew Point 28 °F    
Average Humidity 54    
Maximum Humidity 85    
Minimum Humidity 22    
Precipitation  
Precipitation 0.00 in 0.07 in 1.02 in (1953)
Month to date precipitation 1.91 1.41  
Year to date precipitation 9.41 11.88  
Sea Level Pressure  
Sea Level Pressure 30.18 in    
Wind  
Wind Speed 2 mph (SW)    
Max Wind Speed 13 mph    
Max Gust Speed 14 mph    
Visibility 10 miles    
Events      
T = Trace of Precipitation, MM = Missing Value Source: NWS Daily Summary

Daily Weather History Graph

Daily Weather History Graph

Search for Another Location

Airport or City:

Trip Planner

Search our weather history database for the weather conditions in past years. The results will help you decide how hot, cold, wet, or windy it might be!

Date:

Astronomy

Oct. 23, 2013 Rise Set
Actual Time 7:29 AM MDT 6:20 PM MDT
Civil Twilight 7:02 AM MDT 6:47 PM MDT
Nautical Twilight 6:30 AM MDT 7:18 PM MDT
Astronomical Twilight 5:59 AM MDT 7:50 PM MDT
Moon 9:54 PM MDT (10/23) 11:48 AM MDT (10/23)
Length of Visible Light 11h 45m
Length of Day
10h 50m
Waning Gibbous, 79% of the Moon is Illuminated
Oct 23
Waning Gibbous
Oct 26
Last Quarter
Nov 3
New
Nov 9
First Quarter
Nov 17
Full

Hourly Weather History & Observations

Time (MDT) Temp. Windchill Dew Point Humidity Pressure Visibility Wind Dir Wind Speed Gust Speed Precip Events Conditions
12:53 AM 37.9 °F - 28.9 °F 70% 30.21 in 10.0 mi Calm Calm - N/A   Clear
1:53 AM 36.0 °F - 28.9 °F 76% 30.20 in 10.0 mi Calm Calm - N/A   Clear
2:53 AM 34.0 °F - 28.0 °F 79% 30.20 in 10.0 mi Calm Calm - N/A   Clear
3:53 AM 32.0 °F 28.7 °F 28.0 °F 85% 30.19 in 10.0 mi SSW 3.5 mph - N/A   Clear
4:53 AM 32.0 °F - 27.0 °F 82% 30.20 in 10.0 mi Calm Calm - N/A   Clear
5:53 AM 30.0 °F 24.1 °F 26.1 °F 85% 30.23 in 10.0 mi East 5.8 mph - N/A   Clear
6:53 AM 32.0 °F - 27.0 °F 82% 30.25 in 10.0 mi Calm Calm - N/A   Clear
7:53 AM 30.0 °F - 26.1 °F 85% 30.30 in 10.0 mi Calm Calm - N/A   Clear
8:53 AM 36.0 °F - 30.0 °F 79% 30.29 in 10.0 mi Calm Calm - N/A   Clear
9:53 AM 41.0 °F - 30.0 °F 65% 30.27 in 10.0 mi Calm Calm - N/A   Clear
10:53 AM 48.0 °F - 28.9 °F 48% 30.24 in 10.0 mi Calm Calm - N/A   Clear
11:53 AM 52.0 °F - 28.9 °F 41% 30.22 in 10.0 mi Calm Calm - N/A   Clear
12:53 PM 57.0 °F - 28.0 °F 33% 30.16 in 10.0 mi WSW 3.5 mph - N/A   Clear
1:53 PM 61.0 °F - 27.0 °F 27% 30.12 in 10.0 mi Calm Calm - N/A   Clear
2:53 PM 64.0 °F - 26.1 °F 24% 30.09 in 10.0 mi NW 3.5 mph - N/A   Clear
3:53 PM 66.0 °F - 27.0 °F 23% 30.08 in 10.0 mi West 6.9 mph - N/A   Clear
4:53 PM 64.9 °F - 28.0 °F 25% 30.07 in 10.0 mi West 8.1 mph - N/A   Clear
5:53 PM 62.1 °F - 28.0 °F 28% 30.08 in 10.0 mi WSW 3.5 mph - N/A   Clear
6:53 PM 53.1 °F - 32.0 °F 45% 30.12 in 10.0 mi South 3.5 mph - N/A   Clear
7:53 PM 48.0 °F - 30.9 °F 52% 30.17 in 10.0 mi SSE 5.8 mph - N/A   Clear
8:53 PM 46.0 °F 42.5 °F 30.0 °F 54% 30.17 in 10.0 mi East 6.9 mph - N/A   Clear
9:53 PM 45.0 °F - 28.9 °F 53% 30.17 in 10.0 mi Calm Calm - N/A   Clear
10:53 PM 39.9 °F - 30.0 °F 68% 30.17 in 10.0 mi Calm Calm - N/A   Clear
11:53 PM 39.0 °F - 28.9 °F 67% 30.17 in 10.0 mi Calm Calm - N/A   Clear